Wind_Speed
6 6 7 7 7 6 6 7 8 9 10 10 11 12 12 12 12 13 12 12 13 14 15 15 16 17 17 18 17 17 18 18 18 19 20 20 21 22 23 23 23 24 24
6 6 7 8 7 7 7 8 9 9 10 11 11 11 11 11 12 12 12 12 13 14 14 15 15 16 16 16 16 16 17 18 18 19 21 21 22 23 24 24 24 24 25
7 8 8 8 8 8 8 8 9 9 10 10 11 11 11 11 12 11 11 12 13 13 14 15 16 16 17 17 17 17 18 19 20 21 22 22 23 24 25 25 25 26 27
8 8 9 9 9 9 8 8 9 9 10 10 11 11 11 11 11 11 11 12 13 14 15 15 16 17 17 17 18 19 20 21 22 22 23 24 25 25 25 25 26 27 27
8 9 9 9 9 9 9 9 9 9 10 10 10 11 11 11 11 11 11 12 13 14 15 16 16 17 18 19 21 21 21 22 23 24 24 24 25 25 25 26 27 28 28
9 9 9 9 9 9 9 8 9 9 10 10 11 11 11 11 11 12 12 13 14 14 15 16 17 18 19 21 22 22 22 23 24 24 24 25 25 26 27 28 28 28 29
9 9 9 9 9 9 9 9 9 10 10 10 11 11 12 12 12 12 13 13 14 15 16 17 18 18 20 21 21 22 24 23 24 24 25 26 26 27 28 29 29 29 30
10 10 10 9 9 9 10 10 10 11 11 11 12 12 12 12 13 14 15 15 15 16 17 18 18 19 20 21 21 22 23 24 25 25 26 26 27 29 29 30 30 31 32
11 11 11 10 10 10 11 11 11 11 12 12 12 13 13 14 15 16 16 16 15 16 17 18 19 20 20 21 22 23 24 25 25 26 27 28 29 30 31 32 32 33 34
12 12 12 12 12 12 12 12 13 13 13 13 13 14 15 16 16 17 17 17 18 19 20 20 20 21 21 22 23 24 25 26 27 27 28 29 31 32 33 33 34 35 35
14 14 13 13 13 12 12 13 14 14 14 15 16 16 16 17 18 18 18 19 20 21 22 22 22 22 23 23 24 25 26 27 28 29 30 31 32 33 34 35 35 36 36
15 15 14 14 14 14 14 14 14 14 14 15 16 17 18 18 19 20 21 22 22 23 23 23 23 24 25 26 26 27 27 28 30 31 32 33 33 33 34 35 35 36 36
15 15 15 14 15 15 15 15 15 15 16 17 18 19 20 20 21 22 23 24 24 24 24 24 24 25 27 27 28 28 29 31 32 33 33 34 34 34 34 34 34 35 35
16 15 16 16 16 16 16 16 17 17 18 19 19 20 21 22 23 23 24 24 25 25 25 26 26 27 28 29 29 30 31 32 33 34 34 35 35 35 35 35 35 35 35
18 18 18 18 18 18 18 18 18 19 19 20 21 22 22 23 24 24 25 25 26 26 27 27 28 29 30 30 31 31 32 33 34 34 35 35 35 35 35 35 35 35 35
19 20 19 19 19 19 18 19 19 20 21 22 23 23 23 24 24 25 26 27 27 28 28 29 29 30 31 31 32 33 34 34 35 35 35 35 35 35 35 34 35 35 35
20 20 19 19 19 19 20 20 21 22 22 23 24 24 24 24 25 26 27 27 28 29 29 30 30 31 32 33 33 34 34 35 35 34 35 34 34 34 34 34 34 35 34
20 20 20 20 20 21 22 22 22 23 24 24 24 24 24 25 26 27 28 28 29 29 30 31 31 32 33 34 34 35 35 35 34 34 33 33 33 33 33 33 33 33 32
21 20 21 21 21 22 22 23 23 24 24 24 25 25 25 27 27 28 29 29 30 30 31 32 33 33 34 34 35 34 34 34 34 33 33 33 32 32 32 32 32 32 31
21 21 21 21 21 22 23 23 24 25 25 25 26 26 27 28 29 29 30 30 31 31 32 33 34 34 34 34 34 34 34 33 33 32 32 32 32 32 31 31 31 30 30
22 22 22 22 23 24 24 25 25 26 26 27 27 28 29 30 30 30 30 31 32 33 33 34 34 33 34 34 34 33 33 33 32 32 31 31 31 31 31 30 30 29 29
22 22 23 24 24 24 25 26 26 27 27 27 28 29 29 30 30 30 31 31 32 33 33 33 33 33 33 33 33 32 32 32 32 32 31 31 31 31 30 30 29 29 28
24 24 24 25 24 25 25 26 26 27 28 28 28 29 29 29 30 30 31 32 32 32 31 31 31 32 32 32 31 31 31 31 31 32 31 31 30 30 30 29 29 27 26
25 25 25 25 25 25 26 26 26 26 27 27 28 29 29 29 30 30 31 31 31 30 30 31 31 31 32 31 31 30 30 30 30 30 30 30 30 30 29 28 28 27 27
24 25 24 25 25 26 26 27 27 27 27 27 28 28 28 29 29 30 30 30 30 30 30 30 30 31 30 30 30 30 30 30 30 30 30 29 29 29 28 27 27 27 28
25 24 24 24 25 25 26 27 27 27 27 27 28 28 28 29 29 29 29 30 30 30 30 30 30 30 30 30 30 30 30 30 30 30 29 29 28 27 27 27 27 27 27
Wind_Direction
303 309 315 311 306 306 298 298 298 302 305 308 300 293 291 287 283 280 278 277 277 278 279 280 281 282 282 284 285 284 282 285 285 284 287 288 291 290 289 287 287 286 286
294 299 304 308 311 309 306 303 302 302 304 309 308 301 295 291 288 289 282 280 282 284 284 282 282 283 284 286 289 288 287 288 287 286 286 288 289 289 289 288 288 288 287
297 298 298 301 304 304 303 304 303 305 308 309 310 308 303 297 296 295 291 289 288 288 288 284 283 284 284 287 287 289 290 289 288 289 288 289 291 292 290 288 289 289 288
301 305 303 302 303 302 301 303 306 310 313 313 314 314 311 305 300 299 294 293 291 290 290 288 285 286 288 288 289 291 292 292 291 292 291 291 292 292 292 291 291 291 289
305 308 308 311 311 305 300 302 307 311 311 314 316 318 318 316 309 302 297 295 296 295 293 291 290 289 289 289 291 292 292 292 292 292 291 291 291 291 292 292 292 291 289
306 305 304 305 309 308 305 304 307 309 309 313 315 317 318 319 319 313 305 299 297 297 297 297 296 293 291 291 291 291 292 292 293 293 293 292 292 291 292 293 293 291 289
307 304 303 305 307 306 304 304 306 308 311 313 316 316 317 317 317 318 314 308 305 301 299 299 298 296 297 296 294 294 295 295 294 295 293 294 293 293 293 293 292 291 291
304 303 299 301 303 303 301 301 302 304 307 310 314 314 317 318 317 317 314 310 309 308 305 305 304 301 300 300 300 299 300 298 296 296 296 296 296 296 295 295 293 293 293
299 301 298 296 299 299 302 301 301 302 305 308 311 312 315 318 318 317 314 312 312 312 311 308 306 305 305 304 303 302 302 301 301 299 299 298 299 298 297 296 296 295 295
293 296 298 299 299 296 297 300 300 300 302 305 307 309 311 312 313 314 314 314 313 312 311 311 309 306 305 306 305 305 304 303 302 301 301 300 300 300 299 298 297 296 295
290 291 294 294 296 300 301 301 300 299 301 303 306 308 308 308 310 312 314 314 313 312 311 309 309 307 307 306 305 305 304 303 303 303 303 303 303 302 301 299 298 297 296
292 291 290 289 292 297 300 302 302 300 300 303 306 309 309 310 311 311 312 312 312 312 311 309 308 307 307 306 304 303 303 304 304 305 305 305 305 305 304 301 300 299 299
292 291 289 287 288 292 295 296 297 300 302 305 307 306 307 309 310 310 311 311 311 310 310 309 307 307 307 306 305 304 303 304 305 306 306 306 306 305 305 304 303 303 302
291 291 292 289 290 292 294 295 296 300 303 304 304 305 306 308 309 310 311 311 310 310 309 308 307 306 306 306 305 304 304 304 305 305 305 305 305 306 305 305 304 304 303
286 289 291 290 289 291 292 295 298 301 303 304 305 305 305 307 308 308 308 308 308 308 307 306 306 306 306 306 305 304 305 305 305 305 305 306 306 306 306 305 305 305 305
286 288 291 291 290 291 292 294 297 301 303 303 304 304 305 306 307 307 307 307 306 306 306 306 307 307 307 306 305 305 305 305 305 305 306 306 306 306 306 306 306 306 306
286 289 291 291 291 292 293 294 297 300 302 302 303 304 305 306 307 308 307 307 306 306 306 306 307 308 308 307 306 306 305 305 305 305 306 306 306 305 306 306 307 307 308
285 288 289 289 289 291 293 294 296 298 300 301 302 303 304 306 307 308 307 307 306 306 306 306 307 307 308 308 307 306 306 306 305 306 306 306 306 306 306 307 308 309 309
283 285 287 287 289 291 292 294 296 298 299 300 301 302 304 305 307 308 307 307 307 307 306 307 307 307 308 307 306 306 306 306 306 306 307 307 307 307 307 308 309 309 310
282 284 284 285 288 290 291 294 295 296 297 299 300 301 302 304 305 307 306 306 307 307 307 307 307 307 307 307 305 305 305 306 307 308 308 307 307 308 309 309 310 310 310
280 281 282 285 287 288 291 293 293 294 295 297 299 301 301 302 304 305 305 305 306 307 308 308 308 307 307 307 305 305 306 307 308 308 308 308 309 310 310 310 310 310 309
280 282 284 286 288 290 292 293 294 295 297 298 299 300 301 302 304 304 305 306 307 307 308 309 310 309 309 309 309 309 308 308 308 308 307 307 309 310 310 311 310 310 310
280 282 284 286 289 291 293 293 295 296 297 299 299 300 301 302 304 305 307 308 308 309 309 310 311 311 311 311 311 310 310 309 309 309 310 309 309 310 310 310 309 309 309
278 280 284 286 288 290 293 294 295 296 297 298 299 300 301 302 304 306 307 308 309 309 310 310 311 312 313 314 313 312 311 312 313 313 313 311 310 310 309 308 308 308 308
279 281 283 285 288 291 293 295 296 297 298 299 300 301 302 303 304 306 307 308 309 309 309 310 311 313 313 313 314 314 314 314 314 314 313 312 311 311 310 309 309 309 309
280 282 284 287 289 291 292 294 296 298 299 300 300 302 304 304 305 306 308 309 310 310 310 310 311 312 313 314 314 314 315 315 316 316 315 313 312 311 310 311 311 311 310
Height
5895 5894 5893 5892 5891 5890 5889 5889 5888 5887 5886 5885 5883 5882 5881 5879 5878 5877 5877 5876 5876 5875 5875 5874 5873 5872 5871 5869 5868 5867 5865 5864 5863 5861 5859 5858 5856 5855 5853 5851 5850 5847 5845
5893 5892 5891 5890 5889 5888 5887 5886 5886 5885 5884 5882 5880 5879 5877 5876 5875 5874 5873 5872 5872 5871 5870 5869 5868 5867 5866 5865 5863 5862 5860 5859 5858 5856 5854 5853 5851 5849 5847 5845 5843 5841 5839
5891 5890 5889 5888 5887 5886 5885 5884 5883 5882 5881 5879 5877 5876 5874 5873 5871 5870 5869 5868 5868 5867 5866 5865 5864 5863 5862 5860 5859 5857 5856 5854 5852 5851 5849 5847 5845 5843 5841 5838 5836 5834 5832
5888 5887 5886 5885 5884 5884 5883 5882 5881 5879 5878 5877 5875 5873 5871 5869 5867 5866 5865 5864 5864 5863 5862 5861 5859 5858 5857 5855 5854 5852 5850 5849 5847 5845 5843 5841 5839 5836 5834 5832 5829 5827 5824
5886 5885 5884 5883 5882 5881 5881 5880 5879 5877 5876 5874 5872 5870 5868 5866 5864 5863 5862 5861 5860 5859 5857 5856 5855 5854 5852 5850 5849 5847 5845 5843 5841 5839 5837 5835 5832 5830 5827 5825 5822 5819 5816
5884 5883 5882 5881 5880 5879 5878 5877 5876 5875 5874 5872 5870 5868 5866 5864 5862 5860 5859 5858 5856 5855 5853 5852 5850 5849 5847 5845 5843 5841 5839 5837 5835 5832 5830 5828 5826 5823 5820 5817 5815 5812 5809
5882 5881 5880 5879 5878 5877 5876 5875 5874 5873 5871 5870 5868 5866 5864 5862 5860 5858 5856 5854 5853 5851 5849 5848 5846 5844 5842 5840 5837 5835 5833 5830 5828 5826 5824 5821 5819 5816 5813 5810 5807 5804 5801
5880 5879 5878 5876 5875 5874 5873 5872 5871 5870 5868 5867 5865 5863 5861 5859 5857 5855 5853 5851 5849 5847 5845 5843 5841 5839 5837 5834 5832 5829 5827 5824 5822 5819 5817 5814 5811 5808 5805 5802 5799 5795 5792
5877 5876 5875 5873 5872 5871 5870 5869 5868 5866 5865 5863 5862 5860 5859 5857 5854 5852 5850 5847 5845 5843 5841 5839 5836 5834 5831 5829 5826 5824 5821 5818 5815 5812 5809 5806 5803 5800 5797 5793 5790 5786 5782
5873 5873 5871 5870 5869 5868 5867 5866 5864 5863 5861 5860 5859 5857 5855 5853 5851 5849 5846 5844 5841 5839 5836 5834 5831 5829 5826 5823 5820 5818 5815 5811 5808 5805 5802 5798 5795 5791 5787 5784 5780 5776 5772
5869 5868 5867 5866 5865 5864 5863 5862 5860 5859 5858 5856 5855 5853 5851 5849 5847 5845 5842 5840 5837 5834 5831 5828 5826 5823 5820 5817 5814 5811 5808 5805 5801 5797 5794 5790 5786 5782 5778 5774 5770 5766 5762
5865 5863 5862 5862 5862 5861 5860 5858 5857 5855 5854 5852 5851 5849 5847 5845 5843 5840 5838 5835 5832 5829 5826 5823 5820 5817 5814 5811 5807 5804 5801 5797 5793 5789 5785 5781 5777 5773 5769 5764 5760 5756 5752
5861 5860 5859 5858 5858 5857 5856 5854 5853 5851 5850 5848 5846 5844 5842 5840 5838 5835 5832 5829 5826 5823 5820 5817 5814 5810 5807 5804 5800 5797 5793 5789 5785 5781 5777 5773 5768 5764 5759 5755 5750 5746 5742
5857 5856 5855 5854 5854 5853 5852 5850 5849 5847 5846 5844 5842 5840 5837 5835 5832 5829 5826 5823 5820 5817 5813 5810 5807 5803 5800 5796 5793 5789 5785 5781 5777 5773 5768 5764 5759 5755 5750 5746 5741 5737 5732
5853 5852 5851 5850 5849 5848 5847 5846 5844 5843 5841 5839 5837 5835 5832 5829 5826 5823 5820 5817 5814 5810 5807 5803 5800 5796 5792 5789 5785 5780 5776 5772 5768 5764 5759 5755 5750 5745 5741 5736 5732 5727 5723
5848 5846 5845 5845 5844 5843 5842 5841 5839 5838 5836 5833 5831 5828 5826 5823 5820 5817 5814 5810 5807 5803 5800 5796 5792 5789 5785 5781 5776 5772 5768 5763 5759 5755 5750 5746 5741 5737 5732 5727 5723 5718 5713
5843 5841 5840 5840 5839 5838 5837 5835 5834 5832 5830 5827 5825 5822 5819 5816 5813 5810 5806 5803 5800 5796 5792 5789 5785 5781 5777 5772 5768 5764 5759 5755 5750 5746 5741 5737 5732 5728 5723 5719 5714 5709 5704
5838 5837 5836 5835 5833 5832 5831 5829 5828 5826 5824 5821 5818 5816 5813 5810 5806 5803 5799 5796 5792 5788 5785 5781 5777 5773 5768 5764 5759 5755 5750 5746 5741 5737 5732 5728 5723 5719 5714 5710 5705 5700 5696
5832 5831 5830 5829 5828 5826 5825 5823 5821 5819 5817 5815 5812 5809 5806 5803 5799 5796 5792 5788 5784 5781 5777 5772 5768 5764 5760 5755 5751 5746 5741 5737 5732 5728 5724 5719 5715 5711 5706 5702 5697 5692 5688
5827 5826 5825 5823 5822 5820 5819 5817 5815 5813 5811 5808 5806 5802 5799 5796 5792 5788 5784 5781 5777 5772 5768 5764 5760 5755 5751 5746 5742 5737 5732 5728 5724 5719 5715 5711 5707 5702 5698 5693 5689 5685 5680
5820 5820 5818 5817 5815 5814 5812 5810 5809 5806 5804 5801 5798 5795 5791 5788 5784 5780 5777 5773 5769 5764 5760 5756 5751 5746 5742 5737 5733 5728 5724 5719 5715 5711 5707 5703 5699 5694 5690 5686 5681 5677 5673
5814 5813 5811 5810 5809 5807 5805 5803 5801 5798 5796 5793 5790 5787 5783 5780 5776 5772 5768 5764 5760 5756 5751 5747 5742 5738 5733 5729 5724 5720 5715 5711 5707 5703 5699 5695 5691 5686 5682 5678 5674 5670 5666
5806 5806 5804 5803 5802 5800 5798 5796 5793 5791 5788 5785 5782 5779 5776 5772 5768 5765 5760 5756 5752 5747 5743 5739 5734 5730 5725 5721 5716 5712 5708 5704 5699 5695 5691 5687 5683 5679 5675 5671 5667 5663 5659
5799 5798 5797 5796 5794 5793 5791 5788 5786 5783 5781 5778 5774 5771 5768 5764 5760 5757 5753 5748 5744 5740 5735 5731 5727 5722 5718 5713 5709 5704 5700 5696 5692 5688 5684 5680 5676 5672 5668 5663 5660 5656 5652
5792 5791 5790 5788 5787 5785 5783 5780 5778 5775 5773 5770 5767 5763 5760 5756 5753 5749 5745 5741 5736 5732 5728 5724 5720 5715 5711 5706 5702 5697 5693 5689 5685 5681 5676 5672 5668 5664 5660 5656 5653 5649 5645
5785 5784 5782 5781 5779 5778 5775 5773 5771 5768 5765 5762 5759 5756 5752 5749 5745 5741 5737 5733 5729 5725 5720 5716 5712 5708 5704 5699 5695 5690 5686 5682 5678 5673 5669 5665 5661 5657 5653 5649 5646 5642 5638